This is the latest recevied weather packets stored in our database for station/object KA0EGE. If no packets are shown the sender has not sent any weather packets the latest 10 day(s).
| Time | Temp. | Humidity | Pressure | Rain* | Wind** | Luminosity | Snow |
|---|---|---|---|---|---|---|---|
| 1778015432 | 26.67° C | 65% | 1017.1 hPa | 0 mm | - | 565 W/m² | - |
| 1778015129 | 26.11° C | 65% | 1017 hPa | 0 mm | - | 576 W/m² | - |
| 1778014826 | 26.11° C | 65% | 1017.1 hPa | 0 mm | - | 628 W/m² | - |
| 1778014524 | 25.56° C | 67% | 1017.1 hPa | 0 mm | - | 289 W/m² | - |
| 1778014221 | 26.11° C | 66% | 1017.2 hPa | 0 mm | - | 607 W/m² | - |
| 1778013919 | 25.56° C | 67% | 1017.2 hPa | 0 mm | - | 691 W/m² | - |
| 1778013616 | 26.11° C | 67% | 1017.2 hPa | 0 mm | - | 188 W/m² | - |
| 1778013312 | 26.11° C | 66% | 1017.2 hPa | 0 mm | - | 229 W/m² | - |
| 1778013009 | 26.11° C | 65% | 1017.2 hPa | 0 mm | - | 265 W/m² | - |
| 1778012705 | 26.11° C | 65% | 1017.1 hPa | 0 mm | - | 681 W/m² | - |
| 1778012401 | 26.11° C | 65% | 1017.4 hPa | 0 mm | - | 687 W/m² | - |
| 1778012098 | 26.11° C | 64% | 1017.3 hPa | 0 mm | - | 704 W/m² | - |
| 1778011796 | 25.56° C | 67% | 1017.3 hPa | 0 mm | - | 687 W/m² | - |
| 1778011494 | 26.11° C | 66% | 1017.3 hPa | 0 mm | - | 263 W/m² | - |
| 1778011189 | 27.22° C | 64% | 1017.6 hPa | 0 mm | - | 752 W/m² | - |
| 1778010886 | 27.22° C | 62% | 1017.5 hPa | 0 mm | - | 761 W/m² | - |
| 1778010584 | 26.67° C | 64% | 1017.6 hPa | 0 mm | - | 778 W/m² | - |
| 1778010281 | 27.22° C | 64% | 1017.8 hPa | 0 mm | - | 830 W/m² | - |
| 1778009981 | 26.67° C | 63% | 1017.9 hPa | 0 mm | - | 821 W/m² | - |
| 1778009679 | 26.11° C | 64% | 1017.8 hPa | 0 mm | - | 341 W/m² | - |
| 1778009376 | 26.11° C | 62% | 1018 hPa | 0 mm | - | 880 W/m² | - |
| 1778009075 | 25.56° C | 67% | 1018.2 hPa | 0 mm | - | 308 W/m² | - |
| 1778008772 | 25.56° C | 66% | 1017.9 hPa | 0 mm | - | 266 W/m² | - |
| 1778008471 | 26.11° C | 65% | 1018.1 hPa | 0 mm | - | 233 W/m² | - |
| 1778008167 | 25.56° C | 68% | 1017.9 hPa | 0 mm | - | 307 W/m² | - |
* Rain latest hour (hover to see other rain measurements)
** Current wind speed in m/s (hover to see current wind gust speed)